Wind_Speed
10 11 12 13 14 16 18 18 19 18 19 20 22 23 24 25 26 27 29 31 32 33 34 35 36 36 36 37 37 37 37 37 38 39 39 40 41 41 42 43 43 44 44 44
11 12 13 13 14 16 18 19 20 20 21 22 24 25 26 27 27 29 30 31 32 33 34 35 36 37 37 37 38 38 38 38 38 38 39 40 40 41 41 42 42 43 43 43
12 13 15 15 16 18 18 19 20 21 22 23 25 26 27 28 29 30 31 31 32 33 34 35 36 37 37 37 38 38 38 39 39 39 40 40 40 41 41 42 42 42 42 41
13 15 16 16 18 19 20 21 22 23 24 26 27 28 29 30 30 31 32 33 33 34 35 36 37 37 38 38 38 39 39 39 40 40 40 40 40 40 41 41 41 41 41 41
13 15 17 18 18 20 21 22 23 25 26 27 29 30 31 32 32 33 33 34 34 35 36 36 37 38 38 38 39 39 39 39 40 40 40 40 40 40 40 40 40 40 40 40
13 14 16 18 20 21 23 23 24 25 27 28 29 30 31 33 34 34 35 35 36 36 36 37 37 37 37 38 38 38 39 39 39 39 39 39 39 39 39 39 40 39 39 39
12 14 15 17 19 21 22 23 25 26 28 29 30 31 32 34 35 36 36 37 37 37 37 38 38 37 37 37 38 38 39 39 39 39 39 39 39 39 39 39 38 38 38 37
11 13 14 17 18 20 22 24 25 26 28 29 31 32 33 34 35 36 37 37 38 38 38 39 39 38 38 38 38 38 38 38 39 39 39 38 38 37 37 37 37 37 36 35
10 12 14 16 18 20 22 24 25 27 28 29 30 32 33 34 35 36 37 38 38 39 39 39 39 39 39 39 39 38 38 38 37 37 38 37 37 36 36 36 35 35 34 34
10 11 14 16 18 20 22 25 27 28 29 30 31 32 33 34 35 35 36 37 38 38 38 39 39 39 39 39 39 38 38 38 37 37 37 37 36 35 35 35 34 33 32 31
11 12 14 16 19 21 23 26 28 29 31 32 32 33 33 34 35 35 35 36 36 36 37 37 37 38 38 38 38 38 38 38 37 37 36 36 36 35 35 34 33 32 31 30
13 15 16 18 20 23 25 27 28 30 31 33 33 33 34 35 35 36 35 35 36 36 36 36 37 37 37 38 38 38 38 38 37 37 36 36 35 35 34 33 32 31 30 30
16 17 19 21 23 25 27 29 30 31 32 33 34 35 36 37 38 38 38 37 37 37 37 37 36 36 37 38 38 38 38 37 37 37 36 36 35 35 34 33 31 31 30 30
19 20 22 23 25 27 29 31 32 33 34 35 36 37 38 38 39 40 40 40 39 38 38 38 38 37 37 38 38 38 37 37 36 36 36 36 36 35 34 33 32 31 30 30
22 23 25 26 28 30 31 33 34 35 36 37 39 40 41 42 42 42 42 42 42 41 41 40 39 38 38 38 38 38 37 37 37 37 36 36 36 36 35 34 33 33 32 31
26 27 28 30 31 33 34 35 36 36 38 39 41 42 43 43 44 44 44 44 44 44 43 42 41 40 39 38 38 38 38 37 38 38 37 37 37 37 36 35 35 34 33 32
29 31 33 34 35 36 37 38 38 39 40 41 41 41 42 42 42 43 43 43 43 43 43 43 43 42 41 39 38 38 38 38 38 38 38 38 37 37 36 36 35 34 33 33
33 35 37 38 39 39 40 40 40 41 41 40 39 39 39 39 39 39 39 38 37 38 39 40 41 42 41 41 40 39 39 38 38 37 36 37 37 36 36 35 35 34 34 34
37 39 40 41 42 42 42 42 42 41 41 40 39 38 38 37 37 37 38 37 37 37 36 37 38 39 40 40 40 39 39 39 38 37 36 36 36 36 36 36 36 35 35 35
41 43 43 44 44 44 44 44 44 43 42 40 39 38 37 36 36 36 36 36 36 36 36 36 36 37 38 38 39 39 38 38 38 37 36 35 35 35 35 35 35 35 34 34
45 46 46 46 46 46 46 45 44 43 42 40 39 37 35 34 33 33 33 32 31 31 32 32 33 34 35 36 37 38 38 37 36 36 35 34 33 33 33 34 33 33 33 32
47 48 49 49 48 47 46 45 44 42 40 38 37 36 34 32 31 31 29 28 27 28 28 29 30 31 32 33 34 36 36 36 35 35 34 34 33 32 32 32 32 32 32 32
50 51 51 50 48 47 46 44 42 40 39 37 36 34 33 31 30 28 26 25 24 25 25 27 28 29 30 31 32 34 35 35 35 34 34 33 32 32 32 31 31 32 32 31
52 53 53 51 49 47 45 43 41 39 38 36 35 33 32 30 28 26 24 23 23 23 23 24 26 27 28 29 30 32 32 33 33 32 32 33 32 32 31 31 31 31 31 31
54 54 54 51 49 46 44 42 40 38 36 35 34 32 31 29 27 24 23 22 21 21 21 22 23 25 26 27 28 29 30 30 31 31 31 31 31 31 30 30 30 30 30 30
55 55 53 51 49 46 44 42 39 37 36 34 32 31 29 28 25 23 22 21 20 19 20 20 21 22 24 25 26 26 27 29 29 30 30 30 29 29 29 28 28 28 28 28
55 55 53 51 49 46 44 41 39 36 34 32 30 28 27 26 24 22 21 20 19 18 18 19 19 20 21 23 24 24 25 27 28 28 28 28 27 27 27 27 27 27 27 27
Wind_Direction
225 226 229 231 230 231 231 231 234 235 236 237 239 240 241 241 241 241 241 241 241 242 243 244 245 247 248 249 250 251 252 254 255 257 258 260 262 263 265 266 267 269 271 273
234 236 235 234 235 235 235 237 240 240 240 241 242 243 245 246 247 246 246 246 245 245 246 246 247 248 249 250 251 251 252 254 256 258 259 261 263 264 265 266 268 269 271 273
241 242 241 241 242 242 243 244 246 247 246 245 246 247 247 248 249 249 249 249 249 249 249 248 249 249 250 252 253 254 254 255 257 259 261 262 264 265 265 267 268 270 271 273
245 246 245 248 249 249 250 251 252 252 250 250 251 251 251 251 251 251 252 252 252 252 252 251 251 251 252 253 254 255 256 256 258 259 261 262 263 264 265 267 268 269 271 273
252 250 250 253 256 256 256 256 256 255 254 254 254 254 254 254 253 253 254 254 254 254 253 253 253 253 254 254 255 255 256 256 258 259 260 262 263 265 266 267 268 269 271 273
258 257 255 256 259 261 261 259 259 258 257 257 256 257 257 257 257 257 257 257 256 255 254 254 254 254 255 255 255 255 256 257 258 259 260 262 263 265 266 267 268 269 271 272
266 265 264 265 264 264 264 264 262 261 261 260 260 261 261 260 260 260 259 259 258 257 256 256 256 255 255 255 255 256 256 257 258 259 260 262 263 265 266 267 268 269 270 271
275 275 273 271 270 269 268 268 268 267 266 264 264 263 263 263 262 262 261 261 260 259 258 258 257 256 255 256 256 256 256 257 258 259 260 261 263 264 266 267 268 269 269 270
287 284 280 279 277 276 275 274 273 272 271 270 268 266 265 264 264 263 263 262 261 260 260 259 258 257 256 255 256 256 256 256 257 257 259 261 262 263 265 267 267 268 268 269
300 292 287 286 284 281 280 279 277 275 274 272 271 270 268 268 266 265 265 264 263 261 260 259 259 258 257 256 255 255 256 256 256 256 258 259 260 262 264 265 266 266 267 267
310 302 297 293 290 287 285 284 282 279 276 275 273 272 271 270 269 267 266 265 264 262 260 259 259 258 257 256 255 255 255 255 255 256 257 259 260 261 263 264 264 264 264 264
316 310 305 301 297 294 290 288 286 284 280 277 275 272 271 271 270 269 268 266 265 263 262 260 259 258 257 256 255 255 254 254 254 255 257 258 258 259 261 262 263 262 261 262
318 313 308 305 301 299 295 293 291 289 285 281 277 275 274 272 271 270 270 268 266 264 263 261 259 259 258 256 255 255 254 254 254 254 255 256 257 258 259 261 261 260 260 261
319 315 311 309 307 304 301 298 295 292 288 283 281 278 277 276 274 272 271 269 268 266 263 261 259 258 258 257 255 254 254 253 254 254 254 256 256 256 257 258 258 258 259 259
319 317 315 313 309 307 306 302 298 294 291 287 284 281 279 277 276 275 274 271 269 267 263 260 258 257 257 256 255 253 252 252 252 253 254 255 255 255 255 255 256 257 258 258
318 317 316 314 312 310 308 306 303 298 293 290 288 285 282 280 278 276 275 274 271 267 263 259 257 256 255 255 254 252 251 251 251 251 252 253 254 255 254 254 255 257 256 257
318 317 316 315 313 311 310 307 305 302 299 296 292 288 285 283 281 279 278 276 273 268 263 259 256 254 253 252 252 251 250 250 251 252 253 253 253 253 253 253 254 255 255 256
318 317 316 315 314 313 312 309 308 305 302 299 297 292 289 286 284 281 279 277 274 269 263 259 256 253 251 251 251 249 248 249 250 251 252 251 251 251 251 252 252 254 255 257
318 318 317 316 315 314 312 310 309 308 304 301 298 295 293 289 286 283 280 277 274 270 265 260 256 252 250 251 249 248 248 248 249 249 250 251 251 251 251 251 252 254 256 258
319 319 318 317 316 314 313 311 310 308 305 303 301 298 296 293 290 286 282 279 274 268 264 260 255 252 250 250 248 247 246 246 247 249 250 250 250 250 250 251 252 253 255 257
320 320 320 318 317 315 313 312 310 309 307 306 304 302 298 295 293 291 287 282 274 267 263 258 254 252 250 248 246 245 244 244 245 246 246 247 248 249 249 251 252 253 254 256
320 321 320 319 318 316 314 312 311 310 309 308 306 303 300 297 296 294 289 284 276 268 262 258 253 251 249 246 244 243 242 242 243 243 244 245 247 248 249 250 252 253 254 255
321 321 321 320 319 317 315 313 312 311 310 309 307 304 301 299 296 294 289 283 277 270 262 257 252 249 246 244 242 240 240 240 241 241 243 244 245 247 249 251 252 253 254 255
322 322 322 321 320 318 317 315 313 312 311 310 307 305 302 300 296 291 287 283 278 270 263 257 253 249 245 243 240 238 238 238 239 240 242 244 245 247 249 251 251 251 253 255
323 323 323 322 321 319 317 316 314 312 311 309 307 305 303 301 297 289 285 283 277 270 263 260 256 250 244 240 238 237 236 237 237 239 241 243 244 245 247 249 250 251 253 255
323 323 323 323 321 320 318 316 313 311 310 308 306 303 302 300 296 289 285 282 276 271 265 260 255 249 242 237 235 235 235 236 236 238 240 241 243 245 246 247 248 251 253 256
324 324 323 323 321 320 318 315 313 311 309 307 305 303 301 299 294 288 283 279 273 269 264 258 253 247 240 235 233 234 235 236 237 238 238 239 241 243 244 246 249 252 254 257
Height
5630 5631 5632 5633 5634 5636 5637 5639 5641 5643 5644 5646 5648 5649 5651 5653 5655 5657 5658 5660 5662 5663 5665 5667 5668 5670 5671 5673 5674 5675 5676 5677 5678 5679 5679 5680 5680 5680 5680 5680 5680 5680 5679 5678
5628 5629 5630 5631 5632 5633 5634 5636 5637 5638 5640 5641 5642 5644 5645 5647 5648 5649 5651 5652 5653 5655 5656 5657 5659 5660 5661 5663 5664 5665 5666 5667 5668 5669 5669 5669 5670 5670 5670 5669 5669 5669 5668 5668
5625 5626 5627 5628 5629 5630 5631 5632 5633 5634 5636 5635 5636 5637 5638 5639 5641 5641 5642 5643 5644 5645 5647 5648 5649 5650 5651 5652 5654 5655 5656 5657 5657 5658 5658 5659 5659 5659 5659 5659 5658 5658 5658 5657
5621 5623 5623 5627 5625 5625 5626 5627 5628 5628 5629 5629 5630 5630 5631 5631 5632 5633 5634 5634 5635 5636 5637 5638 5639 5640 5641 5642 5643 5644 5645 5646 5646 5647 5647 5648 5648 5648 5648 5648 5647 5647 5647 5646
5617 5617 5619 5620 5620 5620 5621 5621 5621 5622 5622 5622 5622 5622 5623 5623 5623 5624 5624 5625 5625 5626 5627 5628 5628 5629 5631 5632 5632 5633 5634 5635 5635 5636 5636 5637 5637 5637 5637 5637 5637 5636 5636 5635
5613 5613 5614 5616 5614 5614 5615 5615 5615 5614 5614 5614 5614 5614 5615 5614 5614 5614 5614 5615 5615 5616 5616 5617 5618 5619 5620 5621 5621 5622 5623 5624 5624 5625 5625 5626 5626 5626 5626 5626 5626 5625 5625 5624
5608 5608 5609 5609 5608 5608 5609 5610 5607 5607 5606 5606 5605 5605 5605 5604 5604 5604 5604 5604 5604 5605 5605 5606 5607 5608 5609 5609 5610 5611 5612 5613 5613 5614 5615 5615 5615 5615 5615 5615 5615 5615 5614 5613
5604 5604 5606 5603 5602 5602 5602 5600 5599 5598 5597 5597 5596 5595 5595 5594 5593 5593 5593 5593 5593 5594 5594 5594 5595 5596 5597 5598 5599 5600 5601 5602 5602 5603 5604 5604 5604 5604 5604 5604 5604 5604 5604 5603
5601 5602 5599 5597 5596 5595 5594 5593 5591 5590 5588 5587 5586 5585 5584 5583 5582 5582 5581 5581 5581 5582 5582 5583 5583 5584 5585 5586 5587 5588 5589 5590 5591 5592 5593 5593 5594 5594 5594 5594 5594 5593 5593 5593
5595 5595 5593 5592 5590 5588 5587 5585 5583 5581 5579 5578 5576 5575 5573 5572 5571 5570 5570 5569 5569 5569 5570 5571 5571 5572 5573 5574 5575 5577 5578 5579 5580 5581 5582 5582 5583 5583 5584 5584 5584 5583 5583 5583
5591 5590 5588 5586 5584 5582 5579 5576 5574 5571 5569 5567 5566 5564 5562 5561 5560 5558 5558 5557 5557 5557 5558 5558 5559 5560 5561 5562 5563 5565 5566 5567 5569 5570 5571 5572 5572 5573 5573 5574 5574 5574 5574 5574
5588 5585 5583 5581 5577 5574 5571 5568 5564 5561 5558 5555 5554 5552 5550 5549 5548 5547 5546 5545 5545 5545 5545 5546 5547 5547 5548 5550 5551 5553 5554 5555 5557 5558 5560 5561 5562 5563 5563 5564 5564 5564 5565 5565
5583 5580 5577 5574 5570 5566 5563 5559 5554 5550 5546 5543 5541 5539 5538 5537 5535 5534 5533 5532 5532 5532 5533 5533 5534 5535 5536 5537 5539 5540 5542 5544 5545 5547 5548 5550 5551 5552 5553 5554 5554 5555 5555 5556
5577 5573 5570 5566 5562 5558 5554 5549 5544 5539 5535 5531 5529 5527 5525 5523 5521 5520 5519 5518 5518 5518 5519 5520 5521 5522 5523 5524 5526 5528 5530 5532 5533 5535 5537 5538 5540 5541 5543 5544 5545 5546 5546 5547
5571 5567 5563 5558 5554 5549 5544 5539 5534 5529 5524 5520 5516 5513 5510 5508 5506 5505 5503 5502 5502 5503 5503 5505 5506 5508 5509 5511 5513 5515 5517 5519 5521 5523 5525 5527 5529 5530 5532 5533 5535 5536 5537 5537
5564 5559 5555 5550 5545 5539 5534 5528 5523 5517 5512 5507 5503 5499 5495 5492 5490 5488 5487 5485 5485 5485 5486 5488 5491 5493 5495 5498 5500 5502 5504 5507 5509 5511 5513 5515 5517 5519 5521 5522 5524 5525 5527 5527
5557 5552 5546 5541 5535 5529 5523 5517 5511 5505 5499 5494 5488 5483 5480 5476 5474 5472 5470 5468 5466 5466 5468 5471 5474 5477 5480 5483 5486 5489 5491 5494 5496 5498 5501 5503 5505 5507 5509 5511 5513 5515 5516 5517
5548 5543 5537 5531 5525 5519 5512 5505 5499 5492 5486 5480 5474 5469 5465 5462 5459 5457 5454 5453 5451 5451 5452 5454 5457 5460 5465 5469 5472 5475 5478 5481 5484 5486 5488 5491 5493 5495 5498 5500 5502 5504 5505 5507
5539 5533 5527 5520 5513 5507 5500 5493 5487 5480 5473 5467 5462 5457 5452 5448 5445 5443 5440 5439 5437 5437 5438 5439 5442 5445 5450 5454 5458 5461 5465 5468 5471 5474 5476 5479 5481 5484 5486 5488 5491 5493 5494 5496
5530 5523 5516 5509 5502 5495 5488 5481 5474 5468 5461 5455 5449 5445 5440 5436 5432 5429 5426 5424 5422 5423 5424 5425 5428 5431 5435 5439 5443 5448 5452 5455 5459 5462 5465 5467 5470 5472 5475 5477 5479 5481 5483 5485
5519 5512 5505 5498 5490 5483 5475 5468 5462 5455 5449 5443 5437 5432 5428 5423 5419 5416 5413 5411 5410 5409 5411 5412 5415 5418 5422 5426 5430 5434 5439 5443 5447 5450 5453 5456 5459 5461 5463 5466 5468 5471 5473 5474
5509 5502 5494 5486 5478 5471 5463 5456 5449 5443 5437 5431 5426 5421 5416 5412 5409 5405 5402 5400 5399 5399 5400 5401 5403 5406 5410 5413 5418 5422 5426 5431 5435 5439 5442 5445 5448 5450 5453 5456 5458 5460 5462 5464
5498 5490 5482 5474 5466 5459 5451 5444 5438 5432 5426 5420 5415 5410 5406 5402 5398 5395 5393 5391 5390 5389 5390 5391 5393 5396 5399 5403 5406 5411 5415 5419 5424 5428 5431 5435 5438 5441 5443 5446 5448 5450 5452 5454
5487 5478 5470 5462 5454 5447 5440 5433 5426 5421 5415 5410 5404 5400 5395 5392 5389 5386 5384 5383 5382 5381 5382 5383 5385 5387 5390 5393 5396 5400 5405 5409 5413 5417 5421 5424 5428 5431 5433 5435 5438 5440 5442 5443
5475 5467 5458 5450 5442 5435 5428 5422 5416 5410 5405 5400 5395 5390 5386 5383 5380 5378 5376 5375 5374 5374 5374 5375 5376 5378 5381 5384 5388 5391 5395 5399 5403 5407 5411 5414 5417 5420 5423 5425 5427 5429 5431 5433
5464 5455 5446 5438 5431 5424 5417 5411 5405 5400 5395 5390 5386 5381 5377 5374 5372 5370 5369 5368 5367 5367 5367 5368 5369 5370 5373 5376 5379 5383 5387 5390 5394 5398 5402 5405 5408 5411 5413 5416 5418 5420 5421 5423
5453 5444 5435 5427 5419 5412 5406 5399 5394 5389 5384 5380 5376 5373 5369 5366 5364 5362 5361 5360 5360 5360 5360 5361 5362 5364 5366 5369 5372 5375 5379 5382 5386 5389 5393 5396 5399 5402 5404 5407 5409 5411 5412 5414